| time (UTC) | temp F | wind direction | speed MPH | gust MPH | rain 1hr in | rain 24hr in | rain mn in | humidity % | barometer mb |
| 20260504221050 | 76 | 3 | 16.0 | 25.0 | 0.00 | 0.00 | 0.00 | 29 | |
| 20260504220546 | 76 | 16 | 20.0 | 27.0 | 0.00 | 0.00 | 0.00 | 29 | |
| 20260504220044 | 76 | 1 | 19.0 | 25.0 | 0.00 | 0.00 | 0.00 | 29 | |
| 20260504215540 | 76 | 2 | 15.0 | 23.0 | 0.00 | 0.00 | 0.00 | 30 | |
| 20260504215037 | 76 | 358 | 15.0 | 22.0 | 0.00 | 0.00 | 0.00 | 31 | |
| 20260504214533 | 78 | 2 | 20.0 | 24.0 | 0.00 | 0.00 | 0.00 | 30 | |
| 20260504214030 | 78 | 16 | 17.0 | 22.0 | 0.00 | 0.00 | 0.00 | 30 | |
| 20260504213526 | 78 | 10 | 19.0 | 25.0 | 0.00 | 0.00 | 0.00 | 30 | |
| 20260504213024 | 78 | 16 | 16.0 | 30.0 | 0.00 | 0.00 | 0.00 | 30 | |
| 20260504212519 | 79 | 356 | 17.0 | 22.0 | 0.00 | 0.00 | 0.00 | 30 | |
| 20260504212017 | 78 | 4 | 9.0 | 16.0 | 0.00 | 0.00 | 0.00 | 32 | |
| 20260504211514 | 78 | 353 | 11.0 | 16.0 | 0.00 | 0.00 | 0.00 | 31 | |
| 20260504211011 | 78 | 4 | 17.0 | 27.0 | 0.00 | 0.00 | 0.00 | 31 | |
| 20260504210508 | 78 | 354 | 16.0 | 26.0 | 0.00 | 0.00 | 0.00 | 32 | |
| 20260504210004 | 78 | 19 | 14.0 | 17.0 | 0.00 | 0.00 | 0.00 | 33 | |
| 20260504205502 | 78 | 358 | 16.0 | 22.0 | 0.00 | 0.00 | 0.00 | 33 | |
| 20260504205000 | 78 | 319 | 16.0 | 22.0 | 0.00 | 0.00 | 0.00 | 33 | |
| 20260504204458 | 78 | 349 | 9.0 | 22.0 | 0.00 | 0.00 | 0.00 | 33 | |
| 20260504203957 | 79 | 352 | 14.0 | 17.0 | 0.00 | 0.00 | 0.00 | 33 | |
| 20260504203454 | 80 | 351 | 11.0 | 17.0 | 0.00 | 0.00 | 0.00 | 30 | |
| 20260504202950 | 80 | 10 | 12.0 | 17.0 | 0.00 | 0.00 | 0.00 | 30 | |
| 20260504202447 | 80 | 320 | 7.0 | 15.0 | 0.00 | 0.00 | 0.00 | 31 | |
| 20260504201944 | 80 | 5 | 17.0 | 21.0 | 0.00 | 0.00 | 0.00 | 30 | |
| 20260504201441 | 80 | 315 | 15.0 | 21.0 | 0.00 | 0.00 | 0.00 | 30 | |
| 20260504200939 | 80 | 356 | 14.0 | 18.0 | 0.00 | 0.00 | 0.00 | 28 | |
| 20260504200435 | 80 | 15 | 13.0 | 15.0 | 0.00 | 0.00 | 0.00 | 28 | |
| 20260504195931 | 80 | 332 | 8.0 | 15.0 | 0.00 | 0.00 | 0.00 | 29 | |
| 20260504195427 | 82 | 311 | 7.0 | 14.0 | 0.00 | 0.00 | 0.00 | 28 | |
| 20260504194924 | 81 | 270 | 6.0 | 11.0 | 0.00 | 0.00 | 0.00 | 28 | |
| 20260504194420 | 81 | 5 | 16.0 | 19.0 | 0.00 | 0.00 | 0.00 | 28 | |
| 20260504193916 | 81 | 330 | 13.0 | 21.0 | 0.00 | 0.00 | 0.00 | 27 | |
| 20260504193414 | 81 | 350 | 6.0 | 11.0 | 0.00 | 0.00 | 0.00 | 28 | |
| 20260504192912 | 81 | 344 | 15.0 | 22.0 | 0.00 | 0.00 | 0.00 | 27 | |
| 20260504192409 | 82 | 320 | 6.0 | 13.0 | 0.00 | 0.00 | 0.00 | 28 | |
| 20260504191908 | 81 | 282 | 9.0 | 15.0 | 0.00 | 0.00 | 0.00 | 28 | |
| 20260504191405 | 81 | 318 | 9.0 | 13.0 | 0.00 | 0.00 | 0.00 | 28 | |
| 20260504190901 | 82 | 321 | 11.0 | 16.0 | 0.00 | 0.00 | 0.00 | 27 | |
| 20260504190357 | 81 | 293 | 9.0 | 11.0 | 0.00 | 0.00 | 0.00 | 28 | |
| 20260504185854 | 82 | 356 | 6.0 | 14.0 | 0.00 | 0.00 | 0.00 | 28 | |
| 20260504185351 | 82 | 311 | 12.0 | 17.0 | 0.00 | 0.00 | 0.00 | 28 | |
| 20260504184847 | 81 | 328 | 7.0 | 11.0 | 0.00 | 0.00 | 0.00 | 27 | |
| 20260504184343 | 81 | 323 | 9.0 | 11.0 | 0.00 | 0.00 | 0.00 | 27 | |
| 20260504183839 | 81 | 278 | 5.0 | 7.0 | 0.00 | 0.00 | 0.00 | 25 | |
| 20260504183336 | 81 | 328 | 5.0 | 14.0 | 0.00 | 0.00 | 0.00 | 26 | |
| 20260504182834 | 80 | 280 | 13.0 | 18.0 | 0.00 | 0.00 | 0.00 | 26 | |
| 20260504182331 | 81 | 274 | 10.0 | 18.0 | 0.00 | 0.00 | 0.00 | 25 | |
| 20260504181827 | 81 | 308 | 13.0 | 16.0 | 0.00 | 0.00 | 0.00 | 25 | |
| 20260504181325 | 81 | 334 | 12.0 | 14.0 | 0.00 | 0.00 | 0.00 | 26 | |
| 20260504180824 | 80 | 336 | 12.0 | 17.0 | 0.00 | 0.00 | 0.00 | 26 | |
| 20260504180322 | 80 | 266 | 10.0 | 11.0 | 0.00 | 0.00 | 0.00 | 27 | |
| 20260504175820 | 80 | 294 | 9.0 | 14.0 | 0.00 | 0.00 | 0.00 | 26 | |
| 20260504175316 | 80 | 310 | 7.0 | 18.0 | 0.00 | 0.00 | 0.00 | 25 | |
| 20260504174815 | 80 | 9 | 7.0 | 15.0 | 0.00 | 0.00 | 0.00 | 27 | |
| 20260504174312 | 80 | 308 | 15.0 | 16.0 | 0.00 | 0.00 | 0.00 | 28 | |
| 20260504173808 | 79 | 277 | 6.0 | 15.0 | 0.00 | 0.00 | 0.00 | 29 | |
| 20260504173305 | 79 | 312 | 8.0 | 16.0 | 0.00 | 0.00 | 0.00 | 27 | |
| 20260504172802 | 79 | 325 | 9.0 | 16.0 | 0.00 | 0.00 | 0.00 | 28 | |
| 20260504172259 | 79 | 345 | 8.0 | 13.0 | 0.00 | 0.00 | 0.00 | 29 | |
| 20260504171754 | 79 | 283 | 4.0 | 11.0 | 0.00 | 0.00 | 0.00 | 31 | |
| 20260504171252 | 78 | 341 | 5.0 | 7.0 | 0.00 | 0.00 | 0.00 | 32 | |
| 20260504170749 | 78 | 293 | 9.0 | 10.0 | 0.00 | 0.00 | 0.00 | 33 | |
| 20260504170246 | 78 | 354 | 3.0 | 18.0 | 0.00 | 0.00 | 0.00 | 33 | |
| 20260504160204 | 72 | 273 | 6.0 | 11.0 | 0.00 | 0.00 | 0.00 | 43 | |
| 20260504151132 | 67 | 251 | 8.0 | 11.0 | 0.00 | 0.00 | 0.00 | 47 | |
| 20260504150630 | 67 | 296 | 5.0 | 8.0 | 0.00 | 0.00 | 0.00 | 47 | |
| 20260504150126 | 67 | 197 | 2.0 | 6.0 | 0.00 | 0.00 | 0.00 | 48 | |
| 20260504141055 | 63 | 309 | 2.0 | 4.0 | 0.00 | 0.00 | 0.00 | 52 | |
| 20260504140551 | 63 | 170 | 2.0 | 7.0 | 0.00 | 0.00 | 0.00 | 52 | |
| 20260504130516 | 56 | 354 | 3.0 | 3.0 | 0.00 | 0.00 | 0.00 | 64 | |
| 20260504110403 | 55 | 192 | 1.0 | 2.0 | 0.00 | 0.00 | 0.00 | 56 | |
| 20260504100320 | 55 | 181 | 3.0 | 6.0 | 0.00 | 0.00 | 0.00 | 55 | |
| 20260504081714 | 57 | 164 | 7.0 | 8.0 | 0.00 | 0.00 | 0.00 | 53 | |
| 20260504081210 | 56 | 158 | 6.0 | 7.0 | 0.00 | 0.00 | 0.00 | 54 | |
| 20260504080707 | 55 | 170 | 4.0 | 4.0 | 0.00 | 0.00 | 0.00 | 55 | |
| 20260504080203 | 55 | 165 | 4.0 | 4.0 | 0.00 | 0.00 | 0.00 | 55 | |
| 20260504070131 | 58 | 162 | 8.0 | 9.0 | 0.00 | 0.00 | 0.00 | 51 | |
| 20260504050520 | 60 | 142 | 4.0 | 4.0 | 0.00 | 0.00 | 0.00 | 46 | |
| 20260504050017 | 61 | 140 | 5.0 | 6.0 | 0.00 | 0.00 | 0.00 | 45 | |
| 20260504045513 | 61 | 131 | 6.0 | 6.0 | 0.00 | 0.00 | 0.00 | 44 | |
| 20260504045009 | 62 | 136 | 6.0 | 7.0 | 0.00 | 0.00 | 0.00 | 44 | |
| 20260504044506 | 62 | 137 | 4.0 | 4.0 | 0.00 | 0.00 | 0.00 | 44 | |
| 20260504044003 | 62 | 132 | 4.0 | 4.0 | 0.00 | 0.00 | 0.00 | 44 | |
| 20260504043500 | 61 | 145 | 3.0 | 4.0 | 0.00 | 0.00 | 0.00 | 45 | |
| 20260504042958 | 61 | 157 | 4.0 | 4.0 | 0.00 | 0.00 | 0.00 | 45 | |
| 20260504042454 | 62 | 150 | 3.0 | 3.0 | 0.00 | 0.00 | 0.00 | 44 | |
| 20260504041951 | 62 | 146 | 4.0 | 4.0 | 0.00 | 0.00 | 0.00 | 44 | |
| 20260504041447 | 62 | 152 | 4.0 | 4.0 | 0.00 | 0.00 | 0.00 | 44 | |
| 20260504040943 | 61 | 164 | 4.0 | 4.0 | 0.00 | 0.00 | 0.00 | 47 | |
| 20260504040441 | 61 | 165 | 4.0 | 4.0 | 0.00 | 0.00 | 0.00 | 46 | |
| 20260504035937 | 61 | 162 | 4.0 | 4.0 | 0.00 | 0.00 | 0.00 | 46 | |
| 20260504035435 | 62 | 160 | 4.0 | 6.0 | 0.00 | 0.00 | 0.00 | 46 | |
| 20260504034931 | 61 | 166 | 5.0 | 6.0 | 0.00 | 0.00 | 0.00 | 47 | |
| 20260504034429 | 61 | 169 | 4.0 | 4.0 | 0.00 | 0.00 | 0.00 | 46 | |
| 20260504033925 | 62 | 182 | 3.0 | 6.0 | 0.00 | 0.00 | 0.00 | 44 | |
| 20260504033423 | 63 | 170 | 4.0 | 4.0 | 0.00 | 0.00 | 0.00 | 43 | |
| 20260504032920 | 64 | 169 | 6.0 | 6.0 | 0.00 | 0.00 | 0.00 | 42 | |
| 20260504032417 | 64 | 166 | 4.0 | 4.0 | 0.00 | 0.00 | 0.00 | 41 | |
| 20260504031913 | 62 | 166 | 4.0 | 4.0 | 0.00 | 0.00 | 0.00 | 43 | |
| 20260504031411 | 63 | 163 | 6.0 | 6.0 | 0.00 | 0.00 | 0.00 | 43 | |
| 20260504030907 | 65 | 152 | 4.0 | 7.0 | 0.00 | 0.00 | 0.00 | 40 | |
| 20260504030405 | 65 | 136 | 4.0 | 6.0 | 0.00 | 0.00 | 0.00 | 39 | |
| 20260504025900 | 65 | 129 | 4.0 | 4.0 | 0.00 | 0.00 | 0.00 | 39 | |
| 20260504025358 | 63 | 159 | 6.0 | 7.0 | 0.00 | 0.00 | 0.00 | 43 | |
| 20260504024854 | 66 | 144 | 4.0 | 4.0 | 0.00 | 0.00 | 0.00 | 38 | |
| 20260504024351 | 65 | 147 | 4.0 | 4.0 | 0.00 | 0.00 | 0.00 | 38 | |
| 20260504023848 | 65 | 155 | 4.0 | 4.0 | 0.00 | 0.00 | 0.00 | 40 | |
| 20260504023344 | 66 | 148 | 2.0 | 3.0 | 0.00 | 0.00 | 0.00 | 38 | |
| 20260504022840 | 67 | 126 | 3.0 | 4.0 | 0.00 | 0.00 | 0.00 | 37 | |
| 20260504022337 | 66 | 142 | 3.0 | 3.0 | 0.00 | 0.00 | 0.00 | 38 | |
| 20260504021833 | 66 | 142 | 3.0 | 3.0 | 0.00 | 0.00 | 0.00 | 38 | |
| 20260504021331 | 66 | 124 | 2.0 | 3.0 | 0.00 | 0.00 | 0.00 | 38 | |
| 20260504020828 | 66 | 92 | 2.0 | 3.0 | 0.00 | 0.00 | 0.00 | 39 | |
| 20260504020325 | 67 | 91 | 1.0 | 1.0 | 0.00 | 0.00 | 0.00 | 38 | |
| 20260504015820 | 67 | 91 | 1.0 | 2.0 | 0.00 | 0.00 | 0.00 | 37 | |
| 20260504015317 | 68 | 92 | 1.0 | 1.0 | 0.00 | 0.00 | 0.00 | 37 | |
| 20260504014813 | 68 | 92 | 2.0 | 2.0 | 0.00 | 0.00 | 0.00 | 36 | |
| 20260504014309 | 68 | 72 | 1.0 | 2.0 | 0.00 | 0.00 | 0.00 | 37 | |
| 20260504013807 | 68 | 60 | 0.0 | 1.0 | 0.00 | 0.00 | 0.00 | 36 | |
| 20260504013305 | 69 | 61 | 2.0 | 3.0 | 0.00 | 0.00 | 0.00 | 36 | |
| 20260504012801 | 69 | 59 | 1.0 | 3.0 | 0.00 | 0.00 | 0.00 | 36 | |
| 20260504012259 | 69 | 57 | 3.0 | 4.0 | 0.00 | 0.00 | 0.00 | 35 | |
| 20260504011755 | 69 | 49 | 2.0 | 3.0 | 0.00 | 0.00 | 0.00 | 35 | |
| 20260504011252 | 70 | 46 | 2.0 | 3.0 | 0.00 | 0.00 | 0.00 | 34 | |
| 20260504010748 | 70 | 37 | 1.0 | 3.0 | 0.00 | 0.00 | 0.00 | 34 | |
| 20260504010244 | 71 | 38 | 3.0 | 4.0 | 0.00 | 0.00 | 0.00 | 33 | |
| 20260504005741 | 71 | 39 | 2.0 | 3.0 | 0.00 | 0.00 | 0.00 | 33 | |
| 20260504005238 | 71 | 36 | 2.0 | 3.0 | 0.00 | 0.00 | 0.00 | 33 | |
| 20260504004736 | 72 | 38 | 2.0 | 2.0 | 0.00 | 0.00 | 0.00 | 32 | |
| 20260504004233 | 72 | 35 | 0.0 | 1.0 | 0.00 | 0.00 | 0.00 | 32 | |
| 20260504003729 | 72 | 30 | 0.0 | 4.0 | 0.00 | 0.00 | 0.00 | 32 | |
| 20260504003226 | 72 | 32 | 2.0 | 2.0 | 0.00 | 0.00 | 0.00 | 32 | |
| 20260504002723 | 72 | 33 | 0.0 | 4.0 | 0.00 | 0.00 | 0.00 | 32 | |
| 20260504002220 | 73 | 25 | 2.0 | 3.0 | 0.00 | 0.00 | 0.00 | 31 | |
| 20260504001718 | 73 | 36 | 0.0 | 2.0 | 0.00 | 0.00 | 0.00 | 31 | |
| 20260504001214 | 73 | 31 | 2.0 | 3.0 | 0.00 | 0.00 | 0.00 | 31 | |
| 20260504000711 | 73 | 23 | 4.0 | 6.0 | 0.00 | 0.00 | 0.00 | 31 | |
| 20260504000208 | 74 | 28 | 2.0 | 7.0 | 0.00 | 0.00 | 0.00 | 30 | |
| 20260503235706 | 74 | 11 | 6.0 | 8.0 | 0.00 | 0.00 | 0.00 | 30 | |
| 20260503235203 | 74 | 21 | 3.0 | 6.0 | 0.00 | 0.00 | 0.00 | 30 | |
| 20260503234700 | 74 | 11 | 10.0 | 10.0 | 0.00 | 0.00 | 0.00 | 30 | |
| 20260503234159 | 75 | 3 | 5.0 | 7.0 | 0.00 | 0.00 | 0.00 | 29 | |
| 20260503233655 | 75 | 0 | 3.0 | 4.0 | 0.00 | 0.00 | 0.00 | 28 | |
| 20260503233151 | 74 | 358 | 3.0 | 4.0 | 0.00 | 0.00 | 0.00 | 29 | |
| 20260503232648 | 75 | 9 | 5.0 | 7.0 | 0.00 | 0.00 | 0.00 | 29 | |
| 20260503232145 | 75 | 359 | 1.0 | 3.0 | 0.00 | 0.00 | 0.00 | 29 | |
| 20260503231643 | 74 | 132 | 0.0 | 2.0 | 0.00 | 0.00 | 0.00 | 29 | |
| 20260503231139 | 74 | 56 | 4.0 | 6.0 | 0.00 | 0.00 | 0.00 | 30 | |
| 20260503230636 | 74 | 45 | 0.0 | 3.0 | 0.00 | 0.00 | 0.00 | 30 | |
| 20260503230134 | 75 | 49 | 7.0 | 7.0 | 0.00 | 0.00 | 0.00 | 29 | |
| 20260503225631 | 76 | 103 | 3.0 | 3.0 | 0.00 | 0.00 | 0.00 | 29 | |
| 20260503225131 | 75 | 194 | 1.0 | 2.0 | 0.00 | 0.00 | 0.00 | 29 | |
| 20260503224628 | 75 | 194 | 3.0 | 6.0 | 0.00 | 0.00 | 0.00 | 29 | |
| 20260503224126 | 75 | 245 | 0.0 | 3.0 | 0.00 | 0.00 | 0.00 | 28 | |
| 20260503223624 | 76 | 261 | 2.0 | 3.0 | 0.00 | 0.00 | 0.00 | 28 | |
| 20260503223120 | 75 | 231 | 2.0 | 3.0 | 0.00 | 0.00 | 0.00 | 29 | |
| 20260503222617 | 75 | 353 | 5.0 | 7.0 | 0.00 | 0.00 | 0.00 | 29 | |
| 20260503222115 | 76 | 304 | 1.0 | 4.0 | 0.00 | 0.00 | 0.00 | 29 | |
| 20260503221613 | 76 | 321 | 4.0 | 7.0 | 0.00 | 0.00 | 0.00 | 28 |